Spadeadam Airport, United Kingdom

1:07 AM GMT on March 24, 2017 (GMT +0000)
Spadeadam Airport

Weather History for EGOM - November, 2013

Change the Weather History Date:

Saturday, November 16, 2013

  Actual Average (EGNC) Record (EGNC)
Temperature  
Mean Temperature 46 °F -  
Max Temperature 48 °F 44 °F 53 °F (2004)
Min Temperature 42 °F 38 °F 32 °F (2005)
Degree Days  
Heating Degree Days 19    
Moisture  
Dew Point 45 °F    
Average Humidity 97    
Maximum Humidity 100    
Minimum Humidity 87    
Precipitation  
Precipitation 0.00 in - - ()
Sea Level Pressure  
Sea Level Pressure 30.29 in    
Wind  
Wind Speed 18 mph ()    
Max Wind Speed 26 mph    
Max Gust Speed -    
Visibility 5.9 miles    
Events Rain    
Averages and records for this station are not official NWS values.
T = Trace of Precipitation, MM = Missing Value Source: Averaged Metar Reports

Daily Weather History Graph

Daily Weather History Graph

Search for Another Location

Airport or City:

Trip Planner

Search our weather history database for the weather conditions in past years. The results will help you decide how hot, cold, wet, or windy it might be!

Date:

Astronomy

Nov. 16, 2013 Rise Set
Actual Time 7:44 AM GMT 4:04 PM GMT
Civil Twilight 7:03 AM GMT 4:45 PM GMT
Nautical Twilight 6:18 AM GMT 5:30 PM GMT
Astronomical Twilight 5:35 AM GMT 6:13 PM GMT
Moon 3:38 PM GMT (11/16) 6:15 AM GMT (11/16)
Length of Visible Light 9h 42m
Length of Day
8h 20m
Waxing Gibbous, 99% of the Moon is Illuminated
Nov 16
Waxing Gibbous
Nov 17
Full
Nov 25
Last Quarter
Dec 3
New
Dec 9
First Quarter

Hourly Weather History & Observations

Time (GMT) Temp. Windchill Dew Point Humidity Pressure Visibility Wind Dir Wind Speed Gust Speed Precip Events Conditions
12:50 AM 44.6 °F 36.1 °F 44.6 °F 100% 30.36 in 6.2 mi West 21.9 mph - N/A   Mostly Cloudy
1:50 AM 44.6 °F 36.9 °F 44.6 °F 100% 30.33 in 6.2 mi WSW 18.4 mph - N/A   Mostly Cloudy
2:50 AM 44.6 °F 36.6 °F 44.6 °F 100% 30.33 in 6.2 mi WSW 19.6 mph - N/A   Mostly Cloudy
3:50 AM 44.6 °F 36.6 °F 44.6 °F 100% 30.33 in 6.2 mi WSW 19.6 mph - N/A   Mostly Cloudy
4:50 AM 44.6 °F 37.2 °F 44.6 °F 100% 30.33 in 6.2 mi WSW 17.3 mph - N/A   Mostly Cloudy
5:50 AM 44.6 °F 36.6 °F 44.6 °F 100% 30.30 in 6.2 mi WSW 19.6 mph - N/A   Mostly Cloudy
6:50 AM 44.6 °F 36.1 °F 44.6 °F 100% 30.30 in 6.2 mi WSW 21.9 mph - N/A   Mostly Cloudy
7:50 AM 44.6 °F 35.9 °F 42.8 °F 93% 30.30 in 6.2 mi WSW 23.0 mph - N/A   Overcast
8:50 AM 46.4 °F 38.3 °F 44.6 °F 93% 30.30 in 6.2 mi WSW 23.0 mph - N/A   Mostly Cloudy
9:50 AM 46.4 °F 38.1 °F 44.6 °F 93% 30.30 in 6.2 mi WSW 24.2 mph - N/A   Overcast
10:50 AM 46.4 °F 38.7 °F 44.6 °F 93% 30.30 in 6.2 mi WSW 20.7 mph - N/A   Overcast
11:50 AM 46.4 °F 38.5 °F 44.6 °F 93% 30.30 in 6.2 mi WSW 21.9 mph - N/A   Mostly Cloudy
12:50 PM 46.4 °F 38.3 °F 44.6 °F 93% 30.27 in 6.2 mi WSW 23.0 mph - N/A   Overcast
1:50 PM 46.4 °F 37.7 °F 44.6 °F 93% 30.24 in 6.2 mi WSW 26.5 mph - N/A   Overcast
2:50 PM 48.2 °F - 44.6 °F 87% 30.24 in 6.2 mi WSW 24.2 mph - N/A   Mostly Cloudy
3:50 PM 46.4 °F 38.3 °F 44.6 °F 93% 30.24 in 6.2 mi WSW 23.0 mph - N/A   Mostly Cloudy
4:50 PM 46.4 °F 38.5 °F 44.6 °F 93% 30.24 in 6.2 mi WSW 21.9 mph - N/A   Overcast
5:50 PM 46.4 °F 38.3 °F 46.4 °F 100% 30.24 in 6.2 mi West 23.0 mph - N/A   Overcast
6:50 PM 46.4 °F 38.3 °F 46.4 °F 100% 30.27 in 6.2 mi WSW 23.0 mph - N/A   Overcast
7:50 PM 48.2 °F - 46.4 °F 93% 30.27 in 6.2 mi West 21.9 mph - N/A   Overcast
8:50 PM 48.2 °F - 48.2 °F 100% 30.27 in 3.1 mi WSW 19.6 mph - N/A   Overcast
9:50 PM 48.2 °F - 48.2 °F 100% 30.30 in 3.1 mi West 16.1 mph - N/A Rain Light Rain
10:50 PM 46.4 °F 41.9 °F 46.4 °F 100% 30.30 in 6.2 mi West 9.2 mph - N/A   Mostly Cloudy
11:50 PM 42.8 °F 38.0 °F 42.8 °F 100% 30.33 in 6.2 mi WNW 8.1 mph - N/A   Partly Cloudy